| time (UTC) | temp F | wind direction | speed MPH | gust MPH | rain 1hr in | rain 24hr in | rain mn in | humidity % | barometer mb |
| 20260506090044 | 30 | 347 | 0.0 | 0.0 | 0.00 | 0.18 | 0.00 | 94 | 1017.8 |
| 20260506084547 | 31 | 346 | 0.0 | 0.0 | 0.00 | 0.18 | 0.00 | 94 | 1017.8 |
| 20260506083042 | 31 | 346 | 0.0 | 0.0 | 0.00 | 0.18 | 0.00 | 94 | 1017.8 |
| 20260506081541 | 31 | 346 | 0.0 | 0.0 | 0.00 | 0.18 | 0.00 | 94 | 1017.6 |
| 20260506073043 | 31 | 342 | 0.0 | 0.0 | 0.00 | 0.18 | 0.00 | 94 | 1017.4 |
| 20260506071543 | 31 | 341 | 0.0 | 0.0 | 0.00 | 0.18 | 0.00 | 94 | 1017.4 |
| 20260506061533 | 31 | 341 | 0.0 | 0.0 | 0.00 | 0.18 | 0.00 | 93 | 1016.8 |
| 20260506044526 | 31 | 340 | 0.0 | 0.0 | 0.01 | 0.19 | 0.18 | 93 | 1016.0 |
| 20260506043025 | 31 | 340 | 0.0 | 0.0 | 0.00 | 0.18 | 0.17 | 93 | 1016.1 |
| 20260506041529 | 31 | 340 | 0.0 | 0.0 | 0.00 | 0.18 | 0.17 | 93 | 1016.0 |
| 20260506040025 | 31 | 340 | 0.0 | 0.0 | 0.00 | 0.18 | 0.17 | 93 | 1015.7 |
| 20260506034519 | 32 | 340 | 0.0 | 0.0 | 0.00 | 0.26 | 0.17 | 93 | 1015.5 |
| 20260506033026 | 32 | 340 | 0.0 | 0.0 | 0.00 | 0.26 | 0.17 | 93 | 1015.4 |
| 20260506031522 | 32 | 340 | 0.0 | 0.0 | 0.00 | 0.26 | 0.17 | 93 | 1015.1 |
| 20260506030018 | 32 | 340 | 0.0 | 0.0 | 0.00 | 0.26 | 0.17 | 93 | 1014.6 |
| 20260506024511 | 32 | 340 | 0.0 | 0.0 | 0.01 | 0.28 | 0.17 | 93 | 1014.3 |
| 20260506023109 | 32 | 340 | 0.0 | 0.0 | 0.01 | 0.28 | 0.17 | 93 | 1014.1 |
| 20260506021508 | 32 | 340 | 0.0 | 0.0 | 0.01 | 0.28 | 0.17 | 93 | 1013.6 |
| 20260506020006 | 32 | 340 | 0.0 | 0.0 | 0.01 | 0.28 | 0.17 | 93 | 1013.2 |
| 20260506014509 | 32 | 340 | 0.0 | 0.0 | 0.00 | 0.28 | 0.16 | 93 | 1012.9 |
| 20260506013007 | 32 | 345 | 0.0 | 3.0 | 0.00 | 0.28 | 0.16 | 93 | 1012.8 |
| 20260506011502 | 32 | 345 | 0.0 | 0.0 | 0.00 | 0.28 | 0.16 | 93 | 1012.4 |
| 20260506010105 | 32 | 340 | 0.0 | 2.0 | 0.00 | 0.28 | 0.16 | 93 | 1012.2 |
| 20260506004600 | 32 | 340 | 0.0 | 0.0 | 0.00 | 0.28 | 0.16 | 92 | 1012.1 |
| 20260506003057 | 32 | 24 | 0.0 | 0.0 | 0.00 | 0.28 | 0.16 | 92 | 1011.9 |
| 20260506001617 | 32 | 345 | 0.0 | 0.0 | 0.00 | 0.28 | 0.16 | 92 | 1011.9 |
| 20260506000055 | 32 | 338 | 0.0 | 0.0 | 0.00 | 0.28 | 0.16 | 92 | 1011.5 |
| 20260505234553 | 32 | 331 | 0.0 | 0.0 | 0.00 | 0.28 | 0.16 | 92 | 1011.3 |
| 20260505233055 | 32 | 329 | 0.0 | 0.0 | 0.00 | 0.28 | 0.16 | 92 | 1011.0 |
| 20260505231553 | 32 | 333 | 0.0 | 0.0 | 0.00 | 0.28 | 0.16 | 91 | 1010.7 |
| 20260505230047 | 32 | 316 | 1.0 | 6.0 | 0.00 | 0.28 | 0.16 | 91 | 1010.7 |
| 20260505224548 | 33 | 360 | 0.0 | 10.0 | 0.01 | 0.28 | 0.16 | 90 | 1010.8 |
| 20260505223046 | 34 | 329 | 1.0 | 6.0 | 0.02 | 0.28 | 0.16 | 90 | 1010.2 |
| 20260505221544 | 34 | 10 | 1.0 | 8.0 | 0.03 | 0.28 | 0.16 | 90 | 1009.5 |
| 20260505220042 | 35 | 318 | 0.0 | 7.0 | 0.04 | 0.28 | 0.16 | 89 | 1009.7 |
| 20260505214554 | 37 | 348 | 0.0 | 6.0 | 0.03 | 0.27 | 0.15 | 89 | 1009.2 |
| 20260505213051 | 38 | 355 | 0.0 | 4.0 | 0.02 | 0.26 | 0.14 | 90 | 1009.1 |
| 20260505211536 | 38 | 344 | 0.0 | 0.0 | 0.02 | 0.25 | 0.13 | 90 | 1008.9 |
| 20260505210036 | 39 | 24 | 0.0 | 0.0 | 0.01 | 0.24 | 0.12 | 91 | 1008.9 |
| 20260505204538 | 39 | 9 | 0.0 | 0.0 | 0.01 | 0.24 | 0.12 | 91 | 1009.1 |
| 20260505203043 | 39 | 323 | 0.0 | 0.0 | 0.01 | 0.24 | 0.12 | 91 | 1009.3 |
| 20260505200034 | 39 | 74 | 0.0 | 0.0 | 0.00 | 0.23 | 0.11 | 90 | 1009.4 |
| 20260505194534 | 39 | 76 | 0.0 | 0.0 | 0.00 | 0.26 | 0.11 | 90 | 1009.4 |
| 20260505193044 | 39 | 76 | 0.0 | 0.0 | 0.00 | 0.26 | 0.11 | 91 | 1009.3 |
| 20260505191534 | 39 | 76 | 0.0 | 0.0 | 0.00 | 0.26 | 0.11 | 91 | 1009.1 |
| 20260505190036 | 40 | 72 | 0.0 | 0.0 | 0.01 | 0.26 | 0.11 | 92 | 1008.9 |
| 20260505184530 | 39 | 72 | 0.0 | 0.0 | 0.01 | 0.26 | 0.11 | 92 | 1009.2 |
| 20260505183045 | 39 | 61 | 0.0 | 0.0 | 0.01 | 0.26 | 0.11 | 92 | 1009.6 |
| 20260505181530 | 38 | 61 | 0.0 | 0.0 | 0.01 | 0.26 | 0.11 | 92 | 1009.6 |
| 20260505180036 | 38 | 63 | 0.0 | 0.0 | 0.00 | 0.25 | 0.10 | 92 | 1009.5 |
| 20260505174536 | 38 | 26 | 0.0 | 0.0 | 0.00 | 0.25 | 0.10 | 92 | 1009.5 |
| 20260505173036 | 38 | 26 | 0.0 | 0.0 | 0.00 | 0.25 | 0.10 | 92 | 1009.7 |
| 20260505171533 | 38 | 26 | 0.0 | 0.0 | 0.00 | 0.25 | 0.10 | 93 | 1009.6 |
| 20260505170025 | 38 | 25 | 0.0 | 0.0 | 0.00 | 0.25 | 0.10 | 93 | 1009.4 |
| 20260505164534 | 37 | 355 | 0.0 | 0.0 | 0.00 | 0.25 | 0.10 | 93 | 1009.4 |
| 20260505163024 | 37 | 355 | 0.0 | 0.0 | 0.00 | 0.25 | 0.10 | 93 | 1009.4 |
| 20260505161524 | 37 | 355 | 0.0 | 0.0 | 0.00 | 0.25 | 0.10 | 93 | 1009.4 |
| 20260505153028 | 36 | 11 | 0.0 | 0.0 | 0.01 | 0.25 | 0.10 | 93 | 1009.3 |
| 20260505151522 | 35 | 11 | 0.0 | 0.0 | 0.01 | 0.25 | 0.10 | 93 | 1009.3 |
| 20260505124508 | 34 | 355 | 0.0 | 4.0 | 0.01 | 0.22 | 0.07 | 91 | 1008.0 |
| 20260505123006 | 35 | 307 | 0.0 | 0.0 | 0.01 | 0.22 | 0.07 | 91 | 1007.8 |
| 20260505121505 | 35 | 5 | 0.0 | 3.0 | 0.02 | 0.22 | 0.07 | 91 | 1007.8 |
| 20260505120003 | 35 | 333 | 0.0 | 5.0 | 0.04 | 0.22 | 0.07 | 91 | 1007.8 |
| 20260505114605 | 35 | 360 | 0.0 | 6.0 | 0.04 | 0.21 | 0.06 | 90 | 1007.5 |
| 20260505114502 | 35 | 360 | 0.0 | 6.0 | 0.04 | 0.21 | 0.06 | 90 | 1007.5 |
| 20260505113059 | 36 | 330 | 0.0 | 5.0 | 0.04 | 0.21 | 0.06 | 90 | 1007.5 |
| 20260505111559 | 37 | 33 | 1.0 | 7.0 | 0.04 | 0.20 | 0.05 | 90 | 1007.3 |
| 20260505101546 | 39 | 30 | 0.0 | 8.0 | 0.01 | 0.16 | 0.01 | 90 | 1006.0 |
| 20260505100039 | 40 | 348 | 2.0 | 9.0 | 0.01 | 0.16 | 0.01 | 90 | 1005.8 |
| 20260505094537 | 41 | 319 | 2.0 | 9.0 | 0.01 | 0.16 | 0.01 | 90 | 1005.5 |
| 20260505093042 | 41 | 5 | 2.0 | 9.0 | 0.00 | 0.15 | 0.00 | 90 | 1005.5 |
| 20260505091540 | 41 | 355 | 2.0 | 10.0 | 0.00 | 0.15 | 0.00 | 90 | 1005.4 |